TimeEDT,TemperatureF,Dew PointF,Humidity,Sea Level PressureIn,VisibilityMPH,Wind Direction,Wind SpeedMPH,Gust SpeedMPH,PrecipitationIn,Events,Conditions,WindDirDegrees,DateUTC
12:15 AM,66.2,66.2,100,30.31,3.0,Calm,Calm,-,N/A,,Clear,0,2013-09-11 04:15:00
12:35 AM,66.2,66.2,100,30.31,3.0,Calm,Calm,-,N/A,,Clear,0,2013-09-11 04:35:00
12:55 AM,66.2,66.2,100,30.31,2.0,Calm,Calm,-,N/A,,Clear,0,2013-09-11 04:55:00
1:15 AM,66.2,66.2,100,30.30,0.5,Calm,Calm,-,N/A,Fog,Fog,0,2013-09-11 05:15:00
1:35 AM,66.2,66.2,100,30.30,2.0,Calm,Calm,-,N/A,,Clear,0,2013-09-11 05:35:00
1:55 AM,66.2,66.2,100,30.29,1.2,Calm,Calm,-,N/A,,Mist,0,2013-09-11 05:55:00
2:15 AM,66.2,66.2,100,30.29,3.0,Calm,Calm,-,N/A,,Clear,0,2013-09-11 06:15:00
2:35 AM,66.2,66.2,100,30.29,4.0,Calm,Calm,-,N/A,,Clear,0,2013-09-11 06:35:00
2:55 AM,66.2,66.2,100,30.28,2.0,Calm,Calm,-,N/A,,Clear,0,2013-09-11 06:55:00
3:15 AM,64.4,64.4,100,30.28,1.8,Calm,Calm,-,N/A,,Mist,0,2013-09-11 07:15:00
3:35 AM,64.4,64.4,100,30.28,0.5,Calm,Calm,-,N/A,Fog,Fog,0,2013-09-11 07:35:00
3:55 AM,64.4,64.4,100,30.28,0.2,Calm,Calm,-,N/A,Fog,Fog,0,2013-09-11 07:55:00
4:15 AM,64.4,64.4,100,30.28,0.5,Calm,Calm,-,N/A,Fog,Fog,0,2013-09-11 08:15:00
4:35 AM,64.4,64.4,100,30.28,0.5,Calm,Calm,-,N/A,Fog,Fog,0,2013-09-11 08:35:00
4:55 AM,64.4,64.4,100,30.28,0.8,Calm,Calm,-,N/A,,Overcast,0,2013-09-11 08:55:00
5:15 AM,64.4,64.4,100,30.28,0.2,Calm,Calm,-,N/A,Fog,Fog,0,2013-09-11 09:15:00
5:35 AM,64.4,64.4,100,30.28,0.2,Calm,Calm,-,N/A,Fog,Fog,0,2013-09-11 09:35:00
5:55 AM,64.4,64.4,100,30.28,0.2,Calm,Calm,-,N/A,Fog,Fog,0,2013-09-11 09:55:00
6:15 AM,64.4,64.4,100,30.29,0.2,Calm,Calm,-,N/A,Fog,Fog,0,2013-09-11 10:15:00
6:35 AM,66.2,66.2,100,30.30,0.2,Calm,Calm,-,N/A,Fog,Fog,0,2013-09-11 10:35:00
6:55 AM,64.4,64.4,100,30.30,0.2,Calm,Calm,-,N/A,Fog,Fog,0,2013-09-11 10:55:00
7:15 AM,64.4,64.4,100,30.30,0.2,Calm,Calm,-,N/A,Fog,Fog,0,2013-09-11 11:15:00
7:35 AM,64.4,64.4,100,30.31,0.5,Calm,Calm,-,N/A,Fog,Fog,0,2013-09-11 11:35:00
7:55 AM,66.2,66.2,100,30.31,0.8,Calm,Calm,-,N/A,,Overcast,0,2013-09-11 11:55:00
8:15 AM,66.2,66.2,100,30.31,0.5,Calm,Calm,-,N/A,Fog,Fog,0,2013-09-11 12:15:00
8:35 AM,69.8,69.8,100,30.31,1.0,Calm,Calm,-,N/A,,Overcast,0,2013-09-11 12:35:00
8:55 AM,69.8,69.8,100,30.31,2.0,Calm,Calm,-,N/A,,Mostly Cloudy,0,2013-09-11 12:55:00
9:15 AM,69.8,69.8,100,30.31,4.0,Calm,Calm,-,N/A,Thunderstorm,Clear,0,2013-09-11 13:15:00
9:35 AM,71.6,71.6,100,30.31,7.0,Calm,Calm,-,N/A,,Clear,0,2013-09-11 13:35:00
9:55 AM,73.4,73.4,100,30.31,10.0,WNW,3.5,-,N/A,,Clear,290,2013-09-11 13:55:00
10:15 AM,75.2,73.4,94,30.31,10.0,West,3.5,-,N/A,,Clear,260,2013-09-11 14:15:00
10:35 AM,77.0,73.4,89,30.31,10.0,Calm,Calm,-,N/A,,Scattered Clouds,0,2013-09-11 14:35:00
10:55 AM,78.8,73.4,83,30.31,10.0,WNW,3.5,-,N/A,,Scattered Clouds,290,2013-09-11 14:55:00
10:58 AM,78.8,73.4,83,30.30,10.0,West,5.8,-,N/A,,Scattered Clouds,280,2013-09-11 14:58:00
11:15 AM,78.8,71.6,78,30.30,10.0,West,6.9,-,N/A,,Mostly Cloudy,260,2013-09-11 15:15:00
11:35 AM,80.6,71.6,74,30.30,10.0,WSW,6.9,-,N/A,,Scattered Clouds,250,2013-09-11 15:35:00
11:38 AM,80.6,71.6,74,30.30,10.0,West,6.9,-,N/A,,Scattered Clouds,260,2013-09-11 15:38:00
11:55 AM,78.8,71.6,78,30.30,10.0,West,4.6,-,N/A,,Scattered Clouds,270,2013-09-11 15:55:00
11:58 AM,78.8,71.6,78,30.29,10.0,WNW,3.5,-,N/A,,Mostly Cloudy,300,2013-09-11 15:58:00
12:15 PM,77.0,71.6,83,30.29,10.0,West,4.6,-,N/A,,Mostly Cloudy,260,2013-09-11 16:15:00
12:35 PM,78.8,71.6,78,30.28,10.0,West,4.6,-,N/A,,Scattered Clouds,270,2013-09-11 16:35:00
12:38 PM,78.8,71.6,78,30.28,10.0,WSW,4.6,-,N/A,,Scattered Clouds,240,2013-09-11 16:38:00
12:55 PM,78.8,71.6,78,30.28,10.0,WNW,4.6,-,N/A,,Scattered Clouds,300,2013-09-11 16:55:00
12:58 PM,78.8,71.6,78,30.28,10.0,Calm,Calm,-,N/A,,Clear,0,2013-09-11 16:58:00
1:15 PM,80.6,71.6,74,30.26,10.0,West,5.8,-,N/A,,Clear,260,2013-09-11 17:15:00
1:35 PM,80.6,71.6,74,30.25,10.0,WSW,3.5,-,N/A,,Clear,240,2013-09-11 17:35:00
1:55 PM,84.2,71.6,66,30.24,10.0,West,4.6,-,N/A,,Clear,270,2013-09-11 17:55:00
2:15 PM,82.4,71.6,70,30.24,10.0,West,3.5,-,N/A,,Clear,260,2013-09-11 18:15:00
2:35 PM,82.4,73.4,74,30.24,10.0,West,3.5,-,N/A,,Clear,260,2013-09-11 18:35:00
2:55 PM,82.4,71.6,70,30.24,10.0,Calm,Calm,-,N/A,,Clear,0,2013-09-11 18:55:00
3:15 PM,84.2,71.6,66,30.22,10.0,Calm,Calm,-,N/A,Thunderstorm,Clear,0,2013-09-11 19:15:00
3:35 PM,84.2,69.8,62,30.21,10.0,West,5.8,-,N/A,,Clear,260,2013-09-11 19:35:00
3:55 PM,84.2,69.8,62,30.20,10.0,West,3.5,-,N/A,,Clear,260,2013-09-11 19:55:00
4:15 PM,84.2,69.8,62,30.20,10.0,West,4.6,-,N/A,,Clear,270,2013-09-11 20:15:00
4:35 PM,84.2,66.2,55,30.20,10.0,Calm,Calm,-,N/A,,Clear,0,2013-09-11 20:35:00
4:55 PM,86.0,69.8,58,30.19,10.0,Calm,Calm,-,N/A,,Clear,0,2013-09-11 20:55:00
5:15 PM,84.2,68.0,58,30.19,10.0,West,5.8,-,N/A,Thunderstorm,Thunderstorm,260,2013-09-11 21:15:00
5:35 PM,82.4,69.8,66,30.20,10.0,WNW,8.1,-,N/A,,Mostly Cloudy,300,2013-09-11 21:35:00
5:55 PM,80.6,69.8,70,30.20,10.0,WNW,8.1,-,N/A,,Scattered Clouds,300,2013-09-11 21:55:00
6:15 PM,78.8,71.6,78,30.19,10.0,West,3.5,-,N/A,,Clear,270,2013-09-11 22:15:00
6:35 PM,78.8,71.6,78,30.20,10.0,Calm,Calm,-,N/A,,Mostly Cloudy,0,2013-09-11 22:35:00
6:55 PM,77.0,71.6,83,30.20,10.0,Calm,Calm,-,N/A,Thunderstorm,Mostly Cloudy,0,2013-09-11 22:55:00
7:15 PM,75.2,71.6,89,30.19,10.0,Calm,Calm,-,N/A,,Clear,0,2013-09-11 23:15:00
7:35 PM,75.2,71.6,89,30.20,10.0,Calm,Calm,-,N/A,,Clear,0,2013-09-11 23:35:00
7:55 PM,73.4,71.6,94,30.19,10.0,Calm,Calm,-,N/A,,Clear,0,2013-09-11 23:55:00
8:15 PM,73.4,71.6,94,30.20,10.0,Calm,Calm,-,N/A,,Clear,0,2013-09-12 00:15:00
8:35 PM,73.4,71.6,94,30.20,10.0,Calm,Calm,-,N/A,,Clear,0,2013-09-12 00:35:00
8:55 PM,71.6,71.6,100,30.21,10.0,Calm,Calm,-,N/A,,Clear,0,2013-09-12 00:55:00
9:15 PM,71.6,71.6,100,30.20,10.0,Calm,Calm,-,N/A,,Clear,0,2013-09-12 01:15:00
9:35 PM,71.6,71.6,100,30.21,10.0,Calm,Calm,-,N/A,,Clear,0,2013-09-12 01:35:00
9:55 PM,69.8,69.8,100,30.21,7.0,Calm,Calm,-,N/A,,Clear,0,2013-09-12 01:55:00
10:15 PM,69.8,69.8,100,30.21,7.0,Calm,Calm,-,N/A,,Clear,0,2013-09-12 02:15:00
10:35 PM,69.8,69.8,100,30.20,10.0,Calm,Calm,-,N/A,,Clear,0,2013-09-12 02:35:00
10:55 PM,69.8,69.8,100,30.20,7.0,Calm,Calm,-,N/A,,Clear,0,2013-09-12 02:55:00
11:15 PM,69.8,69.8,100,30.19,7.0,Calm,Calm,-,N/A,,Clear,0,2013-09-12 03:15:00
11:35 PM,69.8,69.8,100,30.19,7.0,Calm,Calm,-,N/A,,Clear,0,2013-09-12 03:35:00
11:55 PM,68.0,68.0,100,30.19,5.0,Calm,Calm,-,N/A,,Clear,0,2013-09-12 03:55:00